Weather History for KLBF - June, 2013

Change the Weather History Date:

Sunday, June 16, 2013

  Actual Average Record
Temperature  
Mean Temperature 73 °F 68 °F  
Max Temperature 89 °F 82 °F 100 °F (1946)
Min Temperature 57 °F 54 °F 38 °F (1976)
Degree Days  
Heating Degree Days 0 1  
Month to date heating degree days 47 41  
Since 1 June heating degree days 47 41  
Since 1 July heating degree days 6763 6676  
Cooling Degree Days 8 5  
Month to date cooling degree days 62 50  
Year to date cooling degree days 110 78  
Since 1 June cooling degree days 62 50  
Growing Degree Days 23 (Base 50)    
Moisture  
Dew Point 57 °F    
Average Humidity 61    
Maximum Humidity 90    
Minimum Humidity 31    
Precipitation  
Precipitation T in 0.11 in 2.87 in (1956)
Month to date precipitation 0.47 1.96  
Year to date precipitation 6.63 9.40  
Snow  
Snow 0.00 in 0.00 in 0.00 in ()
Month to date snowfall 0.0 0.0  
Since 1 June snowfall 0.0 0.0  
Since 1 July snowfall 30.2 28.5  
Snow Depth 0.00 in    
Sea Level Pressure  
Sea Level Pressure 29.97 in    
Wind  
Wind Speed 9 mph (ESE)    
Max Wind Speed 33 mph    
Max Gust Speed 43 mph    
Visibility 10 miles    
Events Rain , Thunderstorm    
T = Trace of Precipitation, MM = Missing Value Source: NWS Daily Summary

Daily Weather History Graph

Daily Weather History Graph

Search for Another Location

Airport or City:

Trip Planner

Search our weather history database for the weather conditions in past years. The results will help you decide how hot, cold, wet, or windy it might be!

Date:

Astronomy

Jun. 16, 2013 Rise Set
Actual Time 6:09 AM CDT 9:17 PM CDT
Civil Twilight 5:35 AM CDT 9:51 PM CDT
Nautical Twilight 4:52 AM CDT 10:34 PM CDT
Astronomical Twilight 4:01 AM CDT 11:25 PM CDT
Moon 1:51 PM CDT (6/16) 1:19 AM CDT (6/16)
Length of Visible Light 16h 15m
Length of Day
15h 07m
Waxing Crescent, 50% of the Moon is Illuminated
Jun 16
Waxing Crescent
Jun 16
First Quarter
Jun 23
Full
Jun 29
Last Quarter
Jul 8
New

Hourly Weather History & Observations

Time (CDT) Temp. Heat Index Dew Point Humidity Pressure Visibility Wind Dir Wind Speed Gust Speed Precip Events Conditions
12:53 AM 66.9 °F - 59.0 °F 76% 29.95 in 10.0 mi East 11.5 mph - N/A   Clear
1:53 AM 64.0 °F - 57.9 °F 80% 29.96 in 10.0 mi SE 5.8 mph - N/A   Clear
2:50 AM 62.6 °F - 57.2 °F 82% 30.05 in 10.0 mi Calm Calm - N/A   Mostly Cloudy
2:53 AM 62.1 °F - 57.9 °F 86% 29.98 in 10.0 mi Calm Calm - N/A   Mostly Cloudy
3:03 AM 62.6 °F - 57.2 °F 82% 30.04 in 10.0 mi NE 4.6 mph - N/A   Scattered Clouds
3:53 AM 60.1 °F - 57.0 °F 90% 29.98 in 10.0 mi NE 5.8 mph - N/A   Clear
4:53 AM 61.0 °F - 57.9 °F 90% 29.99 in 10.0 mi NE 3.5 mph - N/A   Clear
5:53 AM 60.1 °F - 57.0 °F 90% 29.97 in 10.0 mi East 3.5 mph - N/A   Clear
6:38 AM 60.8 °F - 57.2 °F 88% 30.06 in 7.0 mi Calm Calm - N/A   Mostly Cloudy
6:53 AM 61.0 °F - 57.9 °F 90% 29.99 in 8.0 mi Calm Calm - N/A   Overcast
7:09 AM 62.6 °F - 59.0 °F 88% 30.06 in 9.0 mi East 3.5 mph - N/A   Mostly Cloudy
7:53 AM 66.0 °F - 60.1 °F 81% 29.99 in 10.0 mi ESE 5.8 mph - N/A   Partly Cloudy
8:53 AM 70.0 °F - 62.1 °F 76% 29.99 in 10.0 mi SE 5.8 mph - N/A   Clear
9:53 AM 72.0 °F - 60.1 °F 66% 30.00 in 10.0 mi WSW 6.9 mph - N/A   Mostly Cloudy
10:28 AM 73.4 °F - 60.8 °F 65% 30.08 in 10.0 mi Calm Calm - N/A   Scattered Clouds
10:53 AM 75.0 °F - 61.0 °F 62% 29.99 in 10.0 mi Calm Calm - N/A   Partly Cloudy
11:53 AM 79.0 °F - 60.1 °F 52% 29.96 in 10.0 mi SE 10.4 mph - N/A   Partly Cloudy
12:53 PM 84.0 °F 83.5 °F 57.9 °F 41% 29.93 in 10.0 mi SSE 9.2 mph 16.1 mph N/A   Clear
1:53 PM 86.0 °F 84.7 °F 55.9 °F 36% 29.91 in 10.0 mi SE 8.1 mph 18.4 mph N/A   Clear
2:53 PM 88.0 °F 85.9 °F 54.0 °F 31% 29.91 in 10.0 mi South 9.2 mph 17.3 mph N/A   Clear
3:53 PM 84.0 °F 82.5 °F 53.1 °F 34% 29.89 in 10.0 mi SSE 10.4 mph - N/A   Clear
4:32 PM 80.6 °F 80.5 °F 55.4 °F 42% 29.95 in 10.0 mi SSE 10.4 mph - N/A Thunderstorm Thunderstorm
4:53 PM 80.1 °F 80.4 °F 57.0 °F 45% 29.84 in 10.0 mi SSE 16.1 mph 24.2 mph N/A   Mostly Cloudy
5:53 PM 69.1 °F - 57.9 °F 68% 29.94 in 10.0 mi NE 27.6 mph 38.0 mph 0.00 in Rain Light Rain
6:53 PM 68.0 °F - 57.0 °F 68% 30.00 in 10.0 mi NNE 20.7 mph 28.8 mph 0.00 in Rain Light Rain
7:53 PM 64.0 °F - 53.1 °F 67% 29.99 in 10.0 mi ENE 26.5 mph 39.1 mph 0.00 in   Clear
8:53 PM 64.0 °F - 53.1 °F 67% 29.98 in 10.0 mi ESE 18.4 mph 27.6 mph 0.00 in   Scattered Clouds
9:53 PM 64.0 °F - 52.0 °F 65% 29.97 in 10.0 mi SE 12.7 mph - N/A   Clear
10:53 PM 63.0 °F - 54.0 °F 72% 29.99 in 10.0 mi SE 11.5 mph - N/A   Clear
11:53 PM 59.0 °F - 55.0 °F 87% 30.00 in 10.0 mi ESE 3.5 mph - N/A   Clear